Change the Weather History Date:

Friday, December 21, 2012

  Actual Average (KMFE) Record (KMFE)
Temperature  
Mean Temperature 52 °F 61 °F  
Max Temperature 68 °F 71 °F 90 °F (1948)
Min Temperature 37 °F 51 °F 26 °F (1910)
Degree Days  
Heating Degree Days 12 6  
Month to date heating degree days 109  
Since 1 July heating degree days 169  
Cooling Degree Days 0 2  
Month to date cooling degree days 62  
Year to date cooling degree days 4431  
Growing Degree Days 2 (Base 50)    
Moisture  
Dew Point 25 °F    
Average Humidity 36    
Maximum Humidity 73    
Minimum Humidity 11    
Precipitation  
Precipitation 0.00 in 0.04 in 0.28 in (1991)
Month to date precipitation 0.78  
Year to date precipitation 21.79  
Sea Level Pressure  
Sea Level Pressure 30.45 in    
Wind  
Wind Speed 6 mph (ENE)    
Max Wind Speed 12 mph    
Max Gust Speed 10 mph    
Visibility 7 miles    
Events      
T = Trace of Precipitation, MM = Missing Value Source: NWS Daily Summary

Daily Weather History Graph

Daily Weather History Graph

Search for Another Location

Airport or City:

Trip Planner

Search our weather history database for the weather conditions in past years. The results will help you decide how hot, cold, wet, or windy it might be!

Date:

Astronomy

Dec. 21, 2012 Rise Set
Actual Time 7:16 AM CST 5:45 PM CST
Civil Twilight 6:51 AM CST 6:10 PM CST
Nautical Twilight 6:22 AM CST 6:39 PM CST
Astronomical Twilight 5:53 AM CST 7:08 PM CST
Moon 1:12 PM CST (12/21) 1:27 AM CST (12/21)
Length of Visible Light 11h 19m
Length of Day
10h 28m
Waxing Gibbous, 65% of the Moon is Illuminated
Dec 21
Waxing Gibbous
Dec 28
Full
Jan 4
Last Quarter
Jan 11
New
Jan 18
First Quarter

Hourly Weather History & Observations

Time (CST) Temp. Windchill Dew Point Humidity Pressure Visibility Wind Dir Wind Speed Gust Speed Precip Events Conditions
12:15 AM 46.9 °F - 16.9 °F 30% 30.50 in 7.0 mi NW 5.8 mph - N/A   Clear
12:35 AM 46.9 °F - 16.7 °F 30% 30.50 in 7.0 mi NW 6.9 mph - N/A   Clear
12:55 AM 46.9 °F - 16.3 °F 29% 30.50 in 7.0 mi NW 6.9 mph - N/A   Clear
1:15 AM 47.3 °F - 15.8 °F 28% 30.49 in 7.0 mi NW 5.8 mph - N/A   Clear
1:35 AM 47.3 °F - 16.2 °F 29% 30.49 in 7.0 mi NW 5.8 mph - N/A   Clear
1:55 AM 46.0 °F 43.1 °F 16.0 °F 30% 30.49 in 7.0 mi NW 5.8 mph - N/A   Clear
2:15 AM 44.8 °F 42.4 °F 16.3 °F 32% 30.49 in 7.0 mi WNW 4.6 mph - N/A   Clear
2:35 AM 44.4 °F 40.5 °F 16.5 °F 33% 30.49 in 7.0 mi NW 6.9 mph - N/A   Clear
2:55 AM 43.3 °F 38.6 °F 16.5 °F 34% 30.50 in 7.0 mi WNW 8.1 mph - N/A   Clear
3:15 AM 43.0 °F 39.5 °F 16.5 °F 34% 30.50 in 7.0 mi NW 5.8 mph - N/A   Clear
3:35 AM 42.4 °F 40.7 °F 16.5 °F 35% 30.50 in 7.0 mi WNW 3.5 mph - N/A   Clear
3:55 AM 42.6 °F 40.9 °F 15.8 °F 34% 30.50 in 7.0 mi WNW 3.5 mph - N/A   Clear
4:15 AM 42.1 °F 40.2 °F 15.4 °F 34% 30.49 in 7.0 mi NW 3.5 mph - N/A   Clear
4:35 AM 41.0 °F 37.1 °F 15.8 °F 36% 30.49 in 7.0 mi NW 5.8 mph - N/A   Clear
4:55 AM 39.6 °F 35.4 °F 17.4 °F 41% 30.50 in 7.0 mi NW 5.8 mph - N/A   Clear
5:15 AM 40.1 °F 35.3 °F 16.0 °F 38% 30.50 in 7.0 mi NW 6.9 mph - N/A   Clear
5:35 AM 40.1 °F 35.3 °F 14.9 °F 36% 30.51 in 7.0 mi NW 6.9 mph - N/A   Clear
5:55 AM 39.4 °F - 16.3 °F 39% 30.50 in 7.0 mi Calm Calm - N/A   Clear
6:15 AM 39.9 °F 37.8 °F 14.4 °F 35% 30.51 in 7.0 mi NNW 3.5 mph - N/A   Clear
6:35 AM 39.2 °F 35.9 °F 15.4 °F 38% 30.51 in 7.0 mi NNW 4.6 mph - N/A   Clear
6:55 AM 38.3 °F 33.9 °F 16.5 °F 41% 30.52 in 7.0 mi NW 5.8 mph - N/A   Clear
7:15 AM 37.9 °F 35.5 °F 16.0 °F 41% 30.52 in 7.0 mi NW 3.5 mph - N/A   Clear
7:35 AM 38.8 °F 35.4 °F 14.2 °F 37% 30.52 in 7.0 mi NW 4.6 mph - N/A   Clear
7:55 AM 39.9 °F 37.8 °F 15.4 °F 37% 30.53 in 5.0 mi NNW 3.5 mph - N/A   Haze
8:15 AM 41.9 °F 38.2 °F 13.5 °F 32% 30.54 in 5.0 mi NNW 5.8 mph - N/A   Haze
8:35 AM 44.1 °F 41.5 °F 13.5 °F 29% 30.55 in 7.0 mi NNW 4.6 mph - N/A   Clear
8:55 AM 48.0 °F - 11.8 °F 23% 30.54 in 7.0 mi North 4.6 mph - N/A   Clear
9:15 AM 50.5 °F - 11.7 °F 21% 30.54 in 5.0 mi Calm Calm - N/A   Haze
9:35 AM 54.0 °F - 9.3 °F 17% 30.54 in 7.0 mi Calm Calm - N/A   Clear
9:55 AM 58.3 °F - 6.1 °F 12% 30.54 in 7.0 mi NE 5.8 mph - N/A   Clear
10:15 AM 59.5 °F - 4.3 °F 11% 30.54 in 5.0 mi NE 6.9 mph - N/A   Haze
10:35 AM 61.0 °F - 5.5 °F 11% 30.54 in 5.0 mi NE 6.9 mph - N/A   Haze
10:55 AM 62.6 °F - 11.3 °F 13% 30.54 in 5.0 mi NE 4.6 mph - N/A   Haze
11:15 AM 62.4 °F - 18.7 °F 19% 30.52 in 7.0 mi East 4.6 mph - N/A   Clear
11:35 AM 64.4 °F - 23.2 °F 21% 30.51 in 5.0 mi East 5.8 mph - N/A   Haze
11:55 AM 64.6 °F - 26.2 °F 23% 30.50 in 7.0 mi ENE 3.5 mph - N/A   Clear
12:15 PM 65.3 °F - 27.5 °F 24% 30.48 in 5.0 mi ESE 8.1 mph - N/A   Haze
12:35 PM 65.5 °F - 28.6 °F 25% 30.47 in 7.0 mi SE 6.9 mph - N/A   Clear
12:55 PM 66.0 °F - 29.8 °F 26% 30.45 in 5.0 mi SSE 4.6 mph - N/A   Haze
1:15 PM 66.2 °F - 30.4 °F 26% 30.44 in 5.0 mi South 5.8 mph 10.4 mph N/A   Haze
1:35 PM 67.1 °F - 30.6 °F 26% 30.43 in 7.0 mi SE 6.9 mph - N/A   Clear
1:55 PM 66.4 °F - 30.9 °F 27% 30.42 in 7.0 mi SSE 4.6 mph - N/A   Clear
2:15 PM 67.5 °F - 30.6 °F 25% 30.41 in 7.0 mi South 4.6 mph - N/A   Clear
2:35 PM 68.2 °F - 31.5 °F 26% 30.39 in 7.0 mi SSE 5.8 mph - N/A   Clear
2:55 PM 67.6 °F - 32.0 °F 27% 30.38 in 7.0 mi SE 6.9 mph - N/A   Clear
3:15 PM 68.0 °F - 32.0 °F 26% 30.38 in 5.0 mi SSE 9.2 mph - N/A   Haze
3:35 PM 68.0 °F - 32.2 °F 26% 30.37 in 5.0 mi SE 11.5 mph - N/A   Haze
3:55 PM 60.6 °F - 32.0 °F 34% 30.36 in 7.0 mi SE 6.9 mph - N/A   Clear
4:15 PM 68.0 °F - 30.9 °F 25% 30.36 in 7.0 mi ESE 10.4 mph - N/A   Clear
4:35 PM 67.3 °F - 30.9 °F 26% 30.36 in 7.0 mi SE 6.9 mph - N/A   Clear
4:55 PM 66.6 °F - 30.9 °F 26% 30.36 in 5.0 mi SE 9.2 mph - N/A   Haze
5:15 PM 65.7 °F - 31.3 °F 28% 30.36 in 7.0 mi SE 5.8 mph - N/A   Clear
5:35 PM 63.1 °F - 32.0 °F 31% 30.36 in 7.0 mi SSE 4.6 mph - N/A   Clear
5:55 PM 62.6 °F - 37.4 °F 39% 30.36 in 7.0 mi ESE 10.4 mph - N/A   Clear
6:15 PM 61.5 °F - 38.5 °F 43% 30.37 in 7.0 mi East 6.9 mph - N/A   Clear
6:55 PM 59.4 °F - 40.1 °F 49% 30.37 in 7.0 mi East 9.2 mph - N/A   Clear
7:15 PM 59.4 °F - 41.0 °F 51% 30.37 in 7.0 mi East 10.4 mph - N/A   Scattered Clouds
7:35 PM 58.5 °F - 41.4 °F 53% 30.38 in 7.0 mi East 8.1 mph - N/A   Scattered Clouds
7:55 PM 57.7 °F - 41.9 °F 56% 30.38 in 7.0 mi East 8.1 mph - N/A   Scattered Clouds
8:15 PM 57.4 °F - 42.4 °F 57% 30.38 in 7.0 mi East 9.2 mph - N/A   Clear
8:35 PM 56.8 °F - 42.3 °F 58% 30.38 in 7.0 mi East 9.2 mph - N/A   Clear
8:55 PM 55.9 °F - 42.3 °F 60% 30.38 in 7.0 mi East 6.9 mph - N/A   Clear
9:15 PM 55.4 °F - 42.3 °F 61% 30.38 in 7.0 mi East 5.8 mph - N/A   Clear
9:35 PM 54.5 °F - 42.1 °F 63% 30.38 in 7.0 mi East 4.6 mph - N/A   Clear
9:55 PM 52.9 °F - 41.7 °F 66% 30.37 in 7.0 mi East 5.8 mph - N/A   Clear
10:15 PM 52.9 °F - 41.9 °F 66% 30.36 in 7.0 mi East 5.8 mph - N/A   Clear
10:35 PM 53.1 °F - 42.1 °F 66% 30.37 in 7.0 mi East 3.5 mph - N/A   Clear
10:55 PM 52.3 °F - 41.9 °F 68% 30.36 in 7.0 mi East 3.5 mph - N/A   Clear
11:15 PM 52.0 °F - 42.1 °F 69% 30.34 in 7.0 mi ESE 4.6 mph - N/A   Clear
11:35 PM 50.9 °F - 42.4 °F 73% 30.34 in 7.0 mi Calm Calm - N/A   Clear
11:55 PM 50.9 °F - 42.1 °F 72% 30.34 in 7.0 mi ENE 4.6 mph - N/A   Clear